GPS BIIR-7 (PRN 18)

Last updated on Tue Mar 06 2018 00:20:05 GMT+0000 (Coordinated Universal Time)

1 26690U 01004A 18064.43307281 -.00000015 00000-0 00000+0 0 9991 2 26690 53.0888 146.9091 0188719 260.1147 155.8507 2.00564838125254

Satellite not in orbit

GPS BIIR-7 (PRN 18)